Location: Melque
(41.0517°N, 4.4694°W)
Time: 20:42:53
(UTC+00:00)

Resurs 1-3 - Pass Details

Date: 11 December 2025
Orbit: 613 x 615 km, 97.7° (Epoch: 12 January)

Event Time Altitude Azimuth Distance (km) Brightness Sun altitude
Rises 18:04:57 0° 142° (SE) 2,872 6.8 -13.8°
Reaches altitude 10° 18:07:18 10° 131° (SE) 1,971 5.8 -14.2°
Maximum altitude 18:11:03 31° 70° (ENE) 1,094 4.2 -14.9°
Drops below altitude 10° 18:14:51 10° 9° (N) 1,984 5.9 -15.5°
Sets 18:17:13 0° 359° (N) 2,894 6.8 -16.0°
